Cancun, Mexico

2:14 AM on March 24, 2017 (GMT +0000)
Cancun International

Weather History for MMUN - December, 2013

Change the Weather History Date:

Tuesday, December 10, 2013

  Actual Average Record
Temperature  
Mean Temperature 76 °F -  
Max Temperature 84 °F 81 °F 89 °F (1997)
Min Temperature 68 °F 64 °F 55 °F (2010)
Cooling Degree Days 11    
Growing Degree Days 26 (Base 50)    
Moisture  
Dew Point 70 °F    
Average Humidity 79    
Maximum Humidity 100    
Minimum Humidity 62    
Precipitation  
Precipitation 0.00 in - - ()
Sea Level Pressure  
Sea Level Pressure 30.05 in    
Wind  
Wind Speed 3 mph ()    
Max Wind Speed 9 mph    
Max Gust Speed -    
Visibility 7.0 miles    
Events      
Averages and records for this station are not official NWS values.
T = Trace of Precipitation, MM = Missing Value Source: Averaged Metar Reports

Daily Weather History Graph

Daily Weather History Graph

Search for Another Location

Airport or City:

Trip Planner

Search our weather history database for the weather conditions in past years. The results will help you decide how hot, cold, wet, or windy it might be!

Date:

Astronomy

Dec. 10, 2013 Rise Set
Actual Time 6:13 AM CST 5:06 PM CST
Civil Twilight 5:49 AM CST 5:31 PM CST
Nautical Twilight 5:22 AM CST 5:58 PM CST
Astronomical Twilight 4:54 AM CST 6:25 PM CST
Moon 12:30 PM CST (12/10) 12:13 AM CST (12/10)
Length of Visible Light 11h 41m
Length of Day
10h 53m
Waxing Gibbous, 62% of the Moon is Illuminated
Dec 10
Waxing Gibbous
Dec 17
Full
Dec 25
Last Quarter
Jan 1
New
Jan 7
First Quarter

Hourly Weather History & Observations

Time (CST) Temp. Heat Index Dew Point Humidity Pressure Visibility Wind Dir Wind Speed Gust Speed Precip Events Conditions
12:45 AM 77.0 °F - 69.8 °F 78% 30.04 in 7.0 mi East 5.8 mph - N/A   Partly Cloudy
1:44 AM 75.2 °F - 69.8 °F 83% 30.03 in 7.0 mi Calm Calm - N/A   Clear
2:46 AM 73.4 °F - 69.8 °F 88% 29.98 in 7.0 mi Calm Calm - N/A   Clear
3:45 AM 68.0 °F - 66.2 °F 94% 30.04 in 7.0 mi Calm Calm - N/A   Clear
4:44 AM 68.0 °F - 66.2 °F 94% 30.05 in 7.0 mi Calm Calm - N/A   Clear
5:45 AM 68.0 °F - 68.0 °F 100% 30.01 in 7.0 mi Calm Calm - N/A   Partly Cloudy
6:44 AM 71.6 °F - 69.8 °F 94% 30.06 in 7.0 mi North 5.8 mph - N/A   Partly Cloudy
7:55 AM 78.8 °F - 71.6 °F 78% 30.09 in 7.0 mi North 3.5 mph - N/A   Scattered Clouds
8:57 AM 78.8 °F - 71.6 °F 78% 30.07 in 7.0 mi East 2.3 mph - N/A   Scattered Clouds
9:47 AM 82.4 °F 87.2 °F 71.6 °F 70% 30.11 in 7.0 mi East 5.8 mph - N/A   Scattered Clouds
10:45 AM 84.2 °F 88.4 °F 69.8 °F 62% 30.10 in 7.0 mi NNE 5.8 mph - N/A   Scattered Clouds
11:52 AM 84.2 °F 89.6 °F 71.6 °F 66% 30.05 in 7.0 mi NE 9.2 mph - N/A   Scattered Clouds
12:47 PM 84.2 °F 88.4 °F 69.8 °F 62% 30.06 in 7.0 mi ENE 6.9 mph - N/A   Scattered Clouds
1:48 PM 84.2 °F 89.6 °F 71.6 °F 66% 30.03 in 7.0 mi NE 4.6 mph - N/A   Scattered Clouds
2:41 PM 82.4 °F 86.3 °F 69.8 °F 66% 30.01 in 7.0 mi NE 6.9 mph - N/A   Scattered Clouds
3:40 PM 80.6 °F 84.6 °F 71.6 °F 74% 30.03 in 7.0 mi NE 6.9 mph - N/A   Scattered Clouds
4:48 PM 78.8 °F - 69.8 °F 74% 30.04 in 7.0 mi NNE 3.5 mph - N/A   Mostly Cloudy
5:44 PM 77.0 °F - 69.8 °F 78% 30.03 in 7.0 mi North 2.3 mph - N/A   Scattered Clouds
6:40 PM 77.0 °F - 69.8 °F 78% 30.06 in 7.0 mi NNE 3.5 mph - N/A   Scattered Clouds
7:40 PM 75.2 °F - 69.8 °F 83% 30.07 in 7.0 mi NNE 2.3 mph - N/A   Clear
8:40 PM 75.2 °F - 69.8 °F 83% 30.05 in 7.0 mi NNE 2.3 mph - N/A   Clear
9:47 PM 77.0 °F - 69.8 °F 78% 30.09 in 7.0 mi NE 2.3 mph - N/A   Clear
10:47 PM 77.0 °F - 71.6 °F 83% 30.08 in 7.0 mi NNE 2.3 mph - N/A   Clear
11:46 PM 77.0 °F - 71.6 °F 83% 30.04 in 7.0 mi NE 3.5 mph - N/A   Clear